Location: Clermont
(50.2608°N, 4.3172°E)
Time: 16:14:29
(UTC+00:00)

Cosmos 1242 Rocket - Pass Details

Date: 13 August 2020
Orbit: 448 x 486 km, 81.2° (Epoch: 18 September)

Event Time Altitude Azimuth Distance (km) Brightness Sun altitude
Rises 21:10:48 0° 359° (N) 2,542 7.1 -16.9°
Reaches altitude 10° 21:13:17 10° 15° (NNE) 1,664 5.7 -17.1°
Maximum altitude 21:16:08 21° 67° (ENE) 1,124 4.2 -17.4°
Enters shadow 21:16:37 21° 79° (ENE) 1,143 4.2 -17.5°
